GW4861 Weather Reports


time (UTC)temp
F
wind
direction
speed
knots
gust
knots
rain 1hr
in
rain 24hr
in
rain mn
in
humidity
%
barometer
mb
20260507070020 51 335 3.5 7.0 0.00 0.19 0.01 83 1006.0
20260507064524 52 309 1.7 3.5 0.00 0.19 0.01 84 1005.8
20260507063028 52 311 3.5 5.2 0.00 0.19 0.01 83 1005.8
20260507061528 52 339 1.7 2.6 0.00 0.19 0.01 83 1005.9
20260507060021 52 289 1.7 4.3 0.00 0.19 0.01 82 1006.0
20260507054522 52 360 2.6 6.1 0.00 0.19 0.01 81 1006.3
20260507053004 52 335 3.5 10.4 0.00 0.19 0.01 80 1006.4
20260507051509 52 285 2.6 8.7 0.01 0.19 0.01 82 1006.2
20260507050033 53 325 4.3 7.8 0.01 0.19 0.01 82 1006.8
20260507044513 53 293 3.5 9.6 0.03 0.19 0.01 83 1006.3
20260507043003 54 349 2.6 12.2 0.03 0.19 0.01 84 1006.5
20260507041511 55 9 4.3 8.7 0.02 0.18 0.00 86 1006.4
20260507040010 56 305 2.6 8.7 0.02 0.18 0.00 88 1006.2
20260507034513 57 285 1.7 10.4 0.00 0.16 0.16 85 1006.1
20260507033014 58 23 2.6 10.4 0.00 0.16 0.16 85 1005.8
20260507031507 58 360 1.7 10.4 0.00 0.16 0.16 88 1005.4
20260507030008 59 293 7.0 12.2 0.00 0.16 0.16 93 1005.2
20260507024515 59 262 2.6 4.3 0.00 0.16 0.16 93 1005.2
20260507023016 59 266 3.5 7.8 0.00 0.16 0.16 93 1005.0
20260507021523 59 269 2.6 5.2 0.00 0.16 0.16 92 1004.9
20260507020008 59 271 2.6 6.1 0.00 0.16 0.16 92 1004.7
20260507014511 59 226 2.6 5.2 0.00 0.16 0.16 92 1004.8
20260507013016 59 197 3.5 7.8 0.00 0.16 0.16 92 1004.8
20260507011523 59 213 3.5 8.7 0.00 0.16 0.16 92 1004.9
20260507010030 59 219 4.3 8.7 0.00 0.16 0.16 93 1004.9
20260507004512 59 181 1.7 7.0 0.00 0.16 0.16 93 1004.8
20260507003016 59 240 3.5 8.7 0.00 0.16 0.16 93 1004.8
20260507001518 59 205 2.6 7.0 0.00 0.16 0.16 92 1004.6
20260507000025 59 232 2.6 9.6 0.01 0.16 0.16 93 1004.7
20260506234524 59 238 3.5 7.8 0.03 0.16 0.16 92 1004.7
20260506233014 59 190 4.3 8.7 0.05 0.16 0.16 92 1004.6
20260506231520 59 196 3.5 9.6 0.06 0.16 0.16 92 1004.6
20260506230024 59 229 3.5 6.1 0.05 0.15 0.15 92 1004.7
20260506224524 59 211 2.6 10.4 0.04 0.13 0.13 92 1004.8
20260506223024 59 271 3.5 8.7 0.04 0.11 0.11 91 1004.6
20260506221516 59 193 3.5 9.6 0.03 0.10 0.10 91 1004.8
20260506220022 59 220 7.0 13.0 0.03 0.10 0.10 90 1004.8
20260506214522 60 221 3.5 14.8 0.03 0.09 0.09 90 1004.9
20260506213025 60 148 5.2 13.9 0.02 0.07 0.07 89 1004.8
20260506211538 60 169 4.3 13.0 0.02 0.07 0.07 90 1005.1
20260506210031 60 271 3.5 16.5 0.03 0.07 0.07 89 1005.3
20260506204531 60 225 6.1 11.3 0.02 0.06 0.06 89 1005.4
20260506203007 61 252 4.3 12.2 0.01 0.05 0.05 89 1005.5
20260506201511 61 248 6.1 13.9 0.01 0.05 0.05 87 1005.4
20260506200018 62 221 4.3 13.0 0.01 0.04 0.04 85 1005.6
20260506194522 62 210 5.2 10.4 0.02 0.04 0.04 84 1005.7
20260506193003 63 221 4.3 10.4 0.04 0.04 0.04 84 1005.6
20260506191511 63 210 6.1 11.3 0.04 0.04 0.04 85 1005.7
20260506190016 63 205 0.9 7.0 0.03 0.03 0.03 84 1005.5
20260506184520 64 260 4.3 11.3 0.02 0.02 0.02 81 1005.9
20260506183024 66 270 3.5 9.6 0.00 0.00 0.00 76 1005.9
20260506181526 69 266 5.2 15.6 0.00 0.00 0.00 66 1006.0
20260506180014 70 239 10.4 16.5 0.00 0.00 0.00 60 1005.9
20260506174515 71 239 8.7 17.4 0.00 0.00 0.00 56 1005.8
20260506173038 72 233 8.7 16.5 0.00 0.00 0.00 54 1005.8
20260506171537 72 276 7.0 16.5 0.00 0.00 0.00 55 1005.7
20260506170011 72 262 6.1 19.1 0.00 0.00 0.00 56 1005.8
20260506164517 71 237 5.2 13.9 0.00 0.00 0.00 57 1006.0
20260506163027 71 195 12.2 24.3 0.00 0.00 0.00 57 1006.2
20260506161526 70 217 5.2 13.9 0.00 0.00 0.00 60 1006.5
20260506160011 70 244 7.8 12.2 0.00 0.00 0.00 61 1006.9
20260506154514 69 252 4.3 14.8 0.00 0.00 0.00 62 1007.3
20260506153023 69 227 3.5 13.9 0.00 0.00 0.00 64 1007.7
20260506151524 69 252 8.7 15.6 0.00 0.00 0.00 64 1007.8
20260506150027 68 241 10.4 15.6 0.00 0.00 0.00 63 1007.9
20260506144514 68 219 5.2 13.9 0.00 0.00 0.00 64 1008.0
20260506143024 68 288 7.8 16.5 0.00 0.00 0.00 65 1008.0
20260506141520 67 255 6.1 14.8 0.00 0.00 0.00 67 1007.9
20260506140025 67 187 7.8 13.0 0.00 0.00 0.00 68 1007.5
20260506134528 66 230 7.0 12.2 0.00 0.00 0.00 69 1007.7
20260506133015 65 251 7.0 10.4 0.00 0.00 0.00 71 1008.0
20260506131518 65 231 7.0 13.9 0.00 0.00 0.00 71 1008.3
20260506130022 64 255 6.1 12.2 0.00 0.00 0.00 72 1008.3
20260506124526 64 172 7.0 13.0 0.00 0.00 0.00 72 1008.4
20260506123028 64 203 7.0 13.9 0.00 0.00 0.00 73 1008.1
20260506121517 63 236 4.3 13.0 0.00 0.00 0.00 1008.3
20260506120020 63 266 6.1 11.3 0.00 0.00 0.00 74 1008.4
20260506114528 62 238 6.1 10.4 0.00 0.00 0.00 76 1008.6
20260506113010 61 288 3.5 9.6 0.00 0.00 0.00 76 1008.6
20260506111513 61 205 3.5 10.4 0.00 0.00 0.00 76 1008.7
20260506110020 61 199 6.1 11.3 0.00 0.00 0.00 76 1008.6
20260506104511 60 273 4.3 9.6 0.00 0.00 0.00 77 1008.8
20260506103008 60 212 5.2 8.7 0.00 0.00 0.00 77 1008.6
20260506101512 60 229 3.5 10.4 0.00 0.00 0.00 76 1008.3
20260506100020 60 232 4.3 11.3 0.00 0.00 0.00 76 1008.7
20260506094532 60 258 4.3 11.3 0.00 0.00 0.00 75 1008.6
20260506093007 61 174 3.5 10.4 0.00 0.00 0.00 75 1008.3
20260506091510 61 251 5.2 11.3 0.00 0.00 0.00 74 1008.6
20260506090016 61 239 5.2 12.2 0.00 0.00 0.00 74 1008.5
20260506084522 61 231 7.0 12.2 0.00 0.00 0.00 73 1008.4
20260506083037 61 243 4.3 10.4 0.00 0.00 0.00 73 1008.5
20260506081509 62 221 3.5 11.3 0.00 0.00 0.00 72 1008.4
20260506073024 63 230 2.6 10.4 0.00 0.00 0.00 69 1008.5
20260506071526 63 246 4.3 11.3 0.00 0.00 0.00 68 1008.3